Weather in Izluchinsk

Russia / Khanty-Mansi Autonomous Okrug — Yugra     60°57′10″N   76°53′28″E
temp.,
°C
wind,
m/s
gust,
m/s
humid.,
%
clouds,
%
prec.,
mm/h
press.,
hPa
HPBL,
m
13 april, tue
tue1323:00+1w59908 0.0 1026290
02:000w612905 0.0 1026309
05:00−1w6129173 0.0 1027359
08:00+1w7128799 0.0 1028731
11:00+2w81278100 0.0 10271049
14:00+4w91470100 0.0 10261341
17:00+4wnw7137371 0.1 1026937
20:00+2w51088100 0.1 1026263
14 april, wed
wed1423:00+2w51198100 0.1 1024474
02:00+1wsw4799100 0.8 1022400
05:00+2sw51198100 5.1 1018372
08:00+2w71397100 1.9 1017617
11:00+2w61198100 2.1 1018428
14:00+3wnw51198100 0.1 1020548
17:00+2nw4798100 0.1 1022399
20:00+1nnw1193100 0.0 102422
15 april, thu
thu1523:00+1ssw2390100 0.0 102342
02:00+1ssw3697100 0.0 1021132
05:00+2ssw61295100 0.0 1018255
08:00+5sw71493100 0.7 1014385
11:00+12wsw9167361 0.7 1011835
14:00+15wsw10165567 0.0 10081303
17:00+15w10155490 0.0 1007984
20:00+5n91286100 0.0 1009448
16 april, fri
fri1623:00+2nnw51178100 0.5 1012905
02:00+2nw5968100 0.2 10121019
05:00−1n7879100 0.3 1015587
08:00−4n7858100 0.0 1018821
11:00−3n784498 0.0 10201267
14:00−3n783564 0.0 10211400
17:00−5n783499 0.0 10231352
20:00−7nne7837100 0.0 10251069
17 april, sat
sat1723:00−8nne674190 0.0 1025965
02:00−9ne574490 0.0 1025890
05:00−10ne574835 0.0 1025770
08:00−8ne6740100 0.0 1025911
11:00−6ne5628100 0.0 10241200
14:00−4ne6628100 0.0 10231390
17:00−5ne6732100 0.0 10231381
20:00−6ne673699 0.0 10231129